EW5026 Weather Reports


time (UTC)temp
F
wind
direction
speed
knots
gust
knots
rain 1hr
in
rain 24hr
in
rain mn
in
humidity
%
barometer
mb
20260504050553 50 157 3.5 5.2 0.00 0.00 0.00 81 1005.6
20260504045553 50 161 3.5 4.3 0.00 0.00 0.00 81 1005.6
20260504045054 50 161 3.5 4.3 0.00 0.00 0.00 80 1005.7
20260504044552 51 161 3.5 4.3 0.00 0.00 0.00 80 1005.8
20260504044050 51 163 3.5 4.3 0.00 0.00 0.00 80 1005.8
20260504043550 51 165 3.5 4.3 0.00 0.00 0.00 79 1005.8
20260504043050 51 158 3.5 4.3 0.00 0.00 0.00 79 1005.9
20260504042549 51 160 3.5 5.2 0.00 0.00 0.00 79 1005.9
20260504042048 51 163 4.3 6.1 0.00 0.00 0.00 79 1005.8
20260504041549 51 171 4.3 6.1 0.00 0.00 0.00 79 1005.9
20260504041048 51 165 4.3 6.1 0.00 0.00 0.00 79 1005.9
20260504040551 51 171 4.3 6.1 0.00 0.00 0.00 79 1005.9
20260504040048 51 170 4.3 5.2 0.00 0.00 0.00 79 1006.0
20260504035548 51 165 3.5 5.2 0.00 0.00 0.00 79 1006.1
20260504035047 51 165 3.5 5.2 0.00 0.00 0.00 78 1006.2
20260504034546 51 171 3.5 5.2 0.00 0.00 0.00 77 1006.2
20260504034050 52 168 3.5 5.2 0.00 0.00 0.00 77 1006.2
20260504033547 52 172 4.3 6.1 0.00 0.00 0.00 77 1006.2
20260504033053 52 183 4.3 6.1 0.00 0.00 0.00 77 1006.3
20260504032546 52 173 4.3 6.1 0.00 0.00 0.00 76 1006.3
20260504032046 52 178 4.3 6.1 0.00 0.00 0.00 77 1006.3
20260504031555 52 174 3.5 6.1 0.00 0.00 0.00 77 1006.3
20260504031050 52 169 3.5 5.2 0.00 0.00 0.00 76 1006.3
20260504030545 52 169 3.5 5.2 0.00 0.00 0.00 76 1006.3
20260504030049 52 169 3.5 5.2 0.00 0.00 0.00 76 1006.4
20260504025545 52 176 3.5 4.3 0.00 0.00 0.00 75 1006.5
20260504025046 53 171 2.6 4.3 0.00 0.00 0.00 75 1006.5
20260504024556 53 171 2.6 4.3 0.00 0.00 0.00 74 1006.4
20260504024045 53 171 3.5 4.3 0.00 0.00 0.00 74 1006.5
20260504023549 53 178 2.6 4.3 0.00 0.00 0.00 74 1006.5
20260504023046 53 167 2.6 4.3 0.00 0.00 0.00 74 1006.5
20260504022546 53 167 2.6 4.3 0.00 0.00 0.00 74 1006.5
20260504022044 53 167 2.6 4.3 0.00 0.00 0.00 74 1006.4
20260504021551 54 167 3.5 4.3 0.00 0.00 0.00 73 1006.4
20260504021047 54 163 2.6 3.5 0.00 0.00 0.00 73 1006.4
20260504020544 55 161 2.6 4.3 0.00 0.00 0.00 71 1006.3
20260504020048 55 167 2.6 4.3 0.00 0.00 0.00 70 1006.3
20260504015543 56 159 1.7 4.3 0.00 0.00 0.00 68 1006.3
20260504015145 57 159 2.6 5.2 0.00 0.00 0.00 66 1006.2
20260504014544 58 182 3.5 5.2 0.00 0.00 0.00 65 1006.2
20260504014043 58 198 3.5 5.2 0.00 0.00 0.00 64 1006.2
20260504013543 58 193 3.5 5.2 0.00 0.00 0.00 64 1006.1
20260504013048 59 188 4.3 5.2 0.00 0.00 0.00 63 1006.1
20260504012546 59 191 4.3 6.1 0.00 0.00 0.00 62 1006.1
20260504012044 59 192 3.5 6.1 0.00 0.00 0.00 61 1006.0
20260504011543 60 200 4.3 5.2 0.00 0.00 0.00 60 1006.0
20260504011041 61 194 3.5 7.0 0.00 0.00 0.00 58 1006.0
20260504010541 62 203 3.5 7.8 0.00 0.00 0.00 56 1006.1
20260504010042 63 212 5.2 9.6 0.00 0.00 0.00 54 1006.1
20260504005541 63 205 5.2 10.4 0.00 0.00 0.00 53 1006.1
20260504005042 64 219 6.1 10.4 0.00 0.00 0.00 53 1006.0
20260504004551 64 209 6.1 10.4 0.00 0.00 0.00 51 1006.0
20260504004041 65 225 6.1 11.3 0.00 0.00 0.00 51 1006.1
20260504003541 65 210 8.7 13.0 0.00 0.00 0.00 49 1006.1
20260504003038 65 212 7.8 13.0 0.00 0.00 0.00 50 1006.1
20260504002538 66 228 7.8 13.9 0.00 0.00 0.00 49 1006.2
20260504002042 66 257 9.6 13.9 0.00 0.00 0.00 48 1006.2
20260504001540 66 207 7.8 13.9 0.00 0.00 0.00 47 1006.2
20260504001038 66 223 7.8 14.8 0.00 0.00 0.00 47 1006.2
20260504000537 67 236 7.8 12.2 0.00 0.00 0.00 48 1006.2
20260504000037 67 234 7.8 14.8 0.00 0.00 0.00 46 1006.2
20260503235537 67 225 7.8 14.8 0.00 0.00 0.00 46 1006.2
20260503235041 67 226 7.8 12.2 0.00 0.00 0.00 48 1006.2
20260503234538 67 242 7.8 12.2 0.00 0.00 0.00 47 1006.2
20260503234037 68 225 7.0 14.8 0.00 0.00 0.00 47 1006.2
20260503233537 67 238 8.7 14.8 0.00 0.00 0.00 46 1006.2
20260503233036 67 206 7.8 18.2 0.00 0.00 0.00 46 1006.3
20260503232536 68 263 11.3 19.1 0.00 0.00 0.00 45 1006.3
20260503232035 68 227 10.4 20.9 0.00 0.00 0.00 46 1006.4
20260503231534 68 229 12.2 20.9 0.00 0.00 0.00 45 1006.4
20260503231033 68 257 13.9 20.0 0.00 0.00 0.00 46 1006.5
20260503230531 67 221 11.3 17.4 0.00 0.00 0.00 46 1006.5
20260503230032 66 211 11.3 16.5 0.00 0.00 0.00 47 1006.5
20260503225531 66 195 13.0 18.2 0.00 0.00 0.00 46 1006.7
20260503225030 66 209 11.3 16.5 0.00 0.00 0.00 47 1006.7
20260503224531 67 200 11.3 18.2 0.00 0.00 0.00 46 1006.7
20260503224030 66 221 12.2 19.1 0.00 0.00 0.00 46 1006.7
20260503223531 66 202 11.3 19.1 0.00 0.00 0.00 47 1006.8
20260503223030 66 215 12.2 20.0 0.00 0.00 0.00 47 1006.8
20260503222529 66 211 13.0 20.9 0.00 0.00 0.00 47 1006.8
20260503222028 67 200 15.6 21.7 0.00 0.00 0.00 46 1006.8
20260503221528 66 208 14.8 21.7 0.00 0.00 0.00 47 1006.9
20260503221031 65 197 15.6 21.7 0.00 0.00 0.00 47 1006.9
20260503220528 65 215 14.8 21.7 0.00 0.00 0.00 47 1006.8
20260503220033 65 206 12.2 20.0 0.00 0.00 0.00 47 1007.0
20260503215527 66 197 13.9 21.7 0.00 0.00 0.00 47 1007.0
20260503215026 66 210 15.6 24.3 0.00 0.00 0.00 46 1007.0
20260503214526 66 206 14.8 24.3 0.00 0.00 0.00 46 1007.0
20260503214026 66 203 16.5 21.7 0.00 0.00 0.00 46 1007.0
20260503213526 65 169 15.6 21.7 0.00 0.00 0.00 46 1007.1
20260503213028 65 198 13.0 22.6 0.00 0.00 0.00 48 1007.1
20260503212525 65 190 13.0 22.6 0.00 0.00 0.00 48 1007.2
20260503212023 65 184 15.6 25.2 0.00 0.00 0.00 47 1007.2
20260503211534 65 198 16.5 25.2 0.00 0.00 0.00 46 1007.4
20260503211022 65 177 13.0 21.7 0.00 0.00 0.00 47 1007.6
20260503210522 65 210 12.2 23.5 0.00 0.00 0.00 46 1007.7
20260503210022 65 199 14.8 23.5 0.00 0.00 0.00 46 1007.8
20260503205529 65 192 13.9 24.3 0.00 0.00 0.00 46 1007.8
20260503205021 66 201 16.5 24.3 0.00 0.00 0.00 44 1007.9
20260503204520 67 198 18.2 24.3 0.00 0.00 0.00 43 1007.9
20260503204019 67 198 15.6 25.2 0.00 0.00 0.00 43 1008.0
20260503203519 66 157 17.4 25.2 0.00 0.00 0.00 45 1008.0
20260503203021 65 215 19.1 26.1 0.00 0.00 0.00 44 1008.1
20260503202520 67 195 15.6 26.1 0.00 0.00 0.00 44 1008.2
20260503202018 66 200 17.4 28.7 0.00 0.00 0.00 43 1008.2
20260503201516 66 199 18.2 28.7 0.00 0.00 0.00 43 1008.3
20260503201017 66 171 18.2 26.9 0.00 0.00 0.00 45 1008.4
20260503200516 66 193 17.4 26.9 0.00 0.00 0.00 44 1008.5
20260503200015 66 187 17.4 24.3 0.00 0.00 0.00 42 1008.6
20260503195517 65 198 17.4 24.3 0.00 0.00 0.00 43 1008.8
20260503195014 66 182 15.6 28.7 0.00 0.00 0.00 45 1008.7
20260503194514 64 203 19.1 28.7 0.00 0.00 0.00 44 1008.9
20260503194014 65 163 20.0 26.9 0.00 0.00 0.00 45 1008.8
20260503193513 65 196 17.4 26.9 0.00 0.00 0.00 44 1008.9
20260503193030 64 179 20.0 28.7 0.00 0.00 0.00 44 1008.9
20260503192511 64 166 16.5 28.7 0.00 0.00 0.00 45 1009.1
20260503192010 65 220 16.5 27.8 0.00 0.00 0.00 44 1009.1
20260503191512 65 213 18.2 27.8 0.00 0.00 0.00 43 1009.3
20260503191009 64 183 17.4 26.9 0.00 0.00 0.00 45 1009.2
20260503190508 63 200 19.1 26.9 0.00 0.00 0.00 45 1009.5
20260503190018 63 178 19.1 26.9 0.00 0.00 0.00 46 1009.5
20260503185506 64 198 16.5 26.1 0.00 0.00 0.00 47 1009.7
20260503185006 64 200 17.4 23.5 0.00 0.00 0.00 46 1009.8
20260503184505 64 181 17.4 23.5 0.00 0.00 0.00 46 1009.8
20260503184003 63 195 14.8 25.2 0.00 0.00 0.00 49 1010.0
20260503183502 62 178 14.8 25.2 0.00 0.00 0.00 49 1010.2
20260503183001 62 177 14.8 24.3 0.00 0.00 0.00 51 1010.2
20260503182603 61 180 15.6 21.7 0.00 0.00 0.00 52 1010.3
20260503182059 61 190 16.5 21.7 0.00 0.00 0.00 51 1010.3
20260503181602 61 186 13.9 20.9 0.00 0.00 0.00 54 1010.6
20260503181056 60 185 13.9 20.9 0.00 0.00 0.00 55 1010.7
20260503180555 60 170 15.6 20.9 0.00 0.00 0.00 53 1010.9
20260503180054 60 192 13.9 20.0 0.00 0.00 0.00 54 1011.1
20260503175553 59 199 11.3 20.9 0.00 0.00 0.00 56 1011.3
20260503175051 59 171 9.6 17.4 0.00 0.00 0.00 58 1011.5
20260503174605 60 182 9.6 16.5 0.00 0.00 0.00 57 1011.8
20260503174050 60 165 11.3 15.6 0.00 0.00 0.00 60 1011.8
20260503173549 59 184 11.3 13.9 0.00 0.00 0.00 61 1012.1
20260503173049 57 185 7.8 14.8 0.00 0.00 0.00 63 1012.3
20260503172547 57 172 7.8 14.8 0.00 0.00 0.00 65 1012.6
20260503172045 56 188 8.7 12.2 0.00 0.00 0.00 62 1012.8
20260503171543 56 201 7.8 14.8 0.00 0.00 0.00 62 1012.9
20260503171042 56 198 6.1 16.5 0.00 0.00 0.00 63 1013.1
20260503170541 56 196 10.4 16.5 0.00 0.00 0.00 60 1013.0
20260503150531 54 196 7.8 14.8 0.00 0.00 0.00 62 1014.4
20260503131017 53 193 12.2 19.1 0.00 0.00 0.00 62 1014.7
20260503130516 53 207 10.4 16.5 0.00 0.00 0.00 64 1014.8
20260503110555 45 192 6.1 10.4 0.00 0.00 0.00 69 1014.7
20260503100105 43 203 6.1 8.7 0.00 0.00 0.00 69 1015.0
20260503081548 42 196 3.5 5.2 0.00 0.00 0.00 72 1015.2
20260503081042 42 197 2.6 5.2 0.00 0.00 0.00 72 1015.2
20260503080542 42 203 3.5 5.2 0.00 0.00 0.00 72 1015.2
20260503072537 41 175 2.6 4.3 0.00 0.00 0.00 76 1015.2
20260503072039 41 178 2.6 4.3 0.00 0.00 0.00 76 1015.3
20260503071541 41 178 2.6 3.5 0.00 0.00 0.00 77 1015.4
20260503071034 41 178 2.6 3.5 0.00 0.00 0.00 76 1015.5
20260503070533 41 178 2.6 3.5 0.00 0.00 0.00 75 1015.4
20260503055022 44 193 4.3 7.0 0.00 0.00 0.00 67 1016.1
20260503054530 44 207 5.2 6.1 0.00 0.00 0.00 67 1016.2
20260503054025 43 195 4.3 6.1 0.00 0.00 0.00 68 1016.2
20260503053521 43 194 3.5 6.1 0.00 0.00 0.00 68 1016.2
20260503053022 44 198 4.3 6.1 0.00 0.00 0.00 68 1016.2
20260503052520 43 194 4.3 6.1 0.00 0.00 0.00 69 1016.3
20260503052026 43 199 4.3 5.2 0.00 0.00 0.00 69 1016.3